Home > Time Zones > World Clock > Weather > Iran > Rasht > Past weeks

Flag for Iran Weather past 2 weeks in Rasht, Iran

Now
77 °F

Partly sunny.


Feels Like: 79 °F
Forecast: 70 / 85 °F
Wind: No wind

Location: Rasht Airport

Current Time: Jul 28, 2014 at 10:06:43 PM

Latest Report: Jul 28, 2014 at 8:30 PM


Visibility: N/A

Pressure: 29.89 "Hg

Humidity: 69%

Dew point: 66 °F

Location of RashtLocation

Historic Weather in Rasht — Graph

°F

Rasht temperature yesterday

Maximum temperature yesterday: 93 °F (at 1:30 PM)
Minimum temperature yesterday: 72 °F (at 5:30 AM)
Average temperature yesterday: 85 °F

Past Weeks' High & Low Weather Summary

 TemperatureHumidityPressure
High93 °F (Jul 27, 1:30 PM)94% (Jul 17, 3:30 AM)29.92 "Hg (Jul 17, 3:30 AM)
Low68 °F (Jul 24, 4:30 AM)32% (Jul 27, 1:30 PM)29.56 "Hg (Jul 18, 8:30 PM)
Average82 °F64%29.75 "Hg
* Reported Jul 13 8:30 PM — Jul 28 8:30 PM, Rasht, Weather by CustomWeather, © 2014

Note: Actual official high and low records may vary slightly from our data, if they occured in-between our weather recording intervals... More about our weather records

Advertising

Rasht weather history for previous 24 hours

 ConditionsComfort  
Time TempWeatherWind HumidityBarometerVisibility
8:30 PM
Jul 28
77 °FPartly sunny.No wind69%29.89 "HgN/A
8:00 PM79 °FPartly sunny.No wind65%29.89 "HgN/A
7:30 PM79 °FPartly sunny.No wind65%29.89 "HgN/A
7:00 PM81 °FPartly sunny.No wind62%29.86 "HgN/A
6:30 PM81 °FPartly sunny.7 mph62%29.86 "HgN/A
6:00 PM82 °FPartly sunny.9 mph58%29.86 "HgN/A
5:30 PM82 °FPartly sunny.9 mph58%29.86 "HgN/A
5:00 PM82 °FPartly sunny.12 mph62%29.86 "HgN/A
4:30 PM84 °FPartly sunny.12 mph58%29.86 "HgN/A
4:00 PM84 °FScattered clouds.12 mph62%29.89 "HgN/A
3:30 PM84 °FScattered clouds.14 mph62%29.89 "HgN/A
3:00 PM84 °FBroken clouds.9 mph62%29.89 "HgN/A
2:30 PM84 °FBroken clouds.14 mph62%29.89 "HgN/A
2:00 PM84 °FBroken clouds.14 mph62%29.89 "HgN/A
1:30 PM84 °FBroken clouds.14 mph62%29.89 "HgN/A
1:00 PM82 °FPartly sunny.12 mph55%29.92 "HgN/A
12:30 PM82 °FPartly sunny.12 mph55%29.92 "HgN/A
12:00 PM82 °FPartly sunny.16 mph51%29.92 "HgN/A
11:30 AM82 °FPartly sunny.14 mph51%29.92 "HgN/A
11:00 AM81 °FPartly sunny.12 mph51%29.89 "HgN/A
10:30 AM79 °FPartly sunny.7 mph54%29.89 "HgN/A
10:00 AM79 °FPartly sunny.5 mph61%29.89 "HgN/A
9:30 AM77 °FPartly sunny.7 mph65%29.89 "HgN/A
9:00 AM75 °FSunny.5 mph69%29.89 "Hg10 mi
8:30 AM75 °FSunny.5 mph69%29.89 "Hg10 mi
8:00 AM72 °FSunny.No wind69%29.89 "Hg10 mi
7:00 AM75 °FClear.No wind61%29.89 "Hg10 mi
6:30 AM75 °FClear.No wind61%29.89 "Hg10 mi
5:30 AM75 °FClear.No wind61%29.86 "Hg10 mi
3:30 AM75 °FClear.No wind65%29.86 "Hg10 mi
2:30 AM81 °FClear.No wind70%29.86 "Hg10 mi
1:30 AM81 °FClear.No wind70%29.86 "Hg10 mi
12:30 AM81 °FClear.5 mph70%29.86 "Hg10 mi
11:30 PM
Jul 27
81 °FClear.5 mph70%29.86 "Hg10 mi
Weather by CustomWeather, © 2014

See weather overviewHow to use our weather pages